KE4KEW-3 Weather Reports


Display with metric or nautical units.
time (UTC)temp
F
wind
direction
speed
MPH
gust
MPH
rain 1hr
in
rain 24hr
in
rain mn
in
humidity
%
barometer
mb
20260504023023 48 239 1.0 3.0 0.00 0.00 0.00 48 1016.3
20260504021524 45 234 1.0 3.0 0.00 0.00 0.00 61 1016.3
20260504020032 44 213 0.0 0.0 0.00 0.00 0.00 66 1016.1
20260504014506 44 213 0.0 2.0 0.00 0.00 0.00 64 1016.0
20260504013006 44 248 0.0 2.0 0.00 0.00 0.00 61 1015.8
20260504011507 45 283 0.0 0.0 0.00 0.00 0.00 59 1015.6
20260504010004 47 283 0.0 0.0 0.00 0.00 0.00 56 1015.5
20260504004520 49 283 0.0 0.0 0.00 0.00 0.00 52 1015.5
20260504003005 51 283 0.0 0.0 0.00 0.00 0.00 48 1015.4
20260504001523 53 283 0.0 0.0 0.00 0.00 0.00 45 1015.3
20260504000007 56 283 0.0 0.0 0.00 0.00 0.00 37 1015.4
20260503234510 58 283 0.0 2.0 0.00 0.00 0.00 33 1015.3
20260503233007 60 253 1.0 2.0 0.00 0.00 0.00 28 1015.2
20260503231510 61 281 0.0 4.0 0.00 0.00 0.00 29 1015.0
20260503230008 62 216 2.0 4.0 0.00 0.00 0.00 24 1014.9
20260503224508 62 240 2.0 4.0 0.00 0.00 0.00 28 1014.9
20260503223011 62 271 3.0 8.0 0.00 0.00 0.00 26 1015.0
20260503221510 63 309 1.0 6.0 0.00 0.00 0.00 24 1014.9
20260503220021 64 242 1.0 7.0 0.00 0.00 0.00 21 1014.9
20260503214522 63 226 1.0 5.0 0.00 0.00 0.00 21 1015.0
20260503213018 63 340 3.0 10.0 0.00 0.00 0.00 22 1015.1
20260503211514 63 219 3.0 10.0 0.00 0.00 0.00 27 1015.1
20260503210016 63 279 4.0 11.0 0.00 0.00 0.00 25 1015.3
20260503204524 64 248 4.0 9.0 0.00 0.00 0.00 26 1015.3
20260503203013 63 219 2.0 10.0 0.00 0.00 0.00 27 1015.5
20260503201514 63 254 2.0 5.0 0.00 0.00 0.00 30 1015.5
20260503200015 62 254 3.0 9.0 0.00 0.00 0.00 26 1015.7
20260503194512 62 269 4.0 9.0 0.00 0.00 0.00 24 1016.0
20260503193014 61 22 3.0 7.0 0.00 0.00 0.00 26 1016.0
20260503191515 61 310 4.0 7.0 0.00 0.00 0.00 26 1016.3
20260503190017 60 284 2.0 7.0 0.00 0.00 0.00 29 1016.4
20260503184516 60 323 2.0 6.0 0.00 0.00 0.00 30 1017.0
20260503183019 59 5 3.0 9.0 0.00 0.00 0.00 29 1017.1
20260503181534 60 247 2.0 10.0 0.00 0.00 0.00 32 1017.1
20260503180027 59 209 1.0 7.0 0.00 0.00 0.00 36 1017.3
20260503174519 58 259 3.0 7.0 0.00 0.00 0.00 37 1017.4
20260503173016 57 352 5.0 10.0 0.00 0.00 0.00 33 1017.3
20260503171525 56 352 4.0 10.0 0.00 0.00 0.00 33 1017.7
20260503081526 37 320 0.0 2.0 0.00 0.00 0.00 69 1016.2
20260503071508 40 250 0.0 0.0 0.00 0.00 0.00 63 1015.6
20260503054518 37 301 0.0 2.0 0.00 0.00 0.00 70 1015.5
20260503053015 38 327 0.0 2.0 0.00 0.00 0.00 70 1015.6
20260503051508 38 327 0.0 2.0 0.00 0.00 0.00 69 1015.5
20260503050006 38 352 0.0 2.0 0.00 0.00 0.00 66 1015.4
20260503044503 38 290 0.0 2.0 0.00 0.00 0.00 69 1015.4
20260503043004 39 290 0.0 2.0 0.00 0.00 0.00 66 1015.4
20260503041516 39 290 0.0 2.0 0.00 0.00 0.00 62 1015.6
20260503040026 40 275 0.0 0.0 0.00 0.00 0.00 64 1015.6
20260503034512 42 275 0.0 1.0 0.00 0.00 0.00 59 1015.5
20260503033006 44 318 0.0 2.0 0.00 0.00 0.00 56 1015.4
20260503031504 45 322 0.0 2.0 0.00 0.00 0.00 52 1015.2
20260503030004 46 9 0.0 2.0 0.00 0.00 0.00 1015.0
20260503024520 46 352 0.0 2.0 0.00 0.00 0.00 52 1015.1